Flag for U.S.A. Weather past 2 weeks in Cocoa Beach, Florida, U.S.A.

Now
77 °F

Sunny.


Feels Like: 79 °F
Forecast: 60 / 77 °F
Wind: 10 mph from Southeast

Location: Cocoa / Patrick Air Force Base

Current Time: Mar 31, 2015 at 3:04:31 PM

Latest Report: Mar 31, 2015 at 1:58 PM


Visibility: 10 mi

Pressure: 30.12 "Hg

Humidity: 65%

Dew point: 64 °F

Location of Cocoa BeachLocation

Historic Weather in Cocoa Beach — Graph

°F

Cocoa Beach temperature yesterday

Maximum temperature yesterday: 74 °F (at 1:58 PM)
Minimum temperature yesterday: 57 °F (at 6:58 AM)
Average temperature yesterday: 65 °F

Past Weeks' High & Low Weather Summary

 TemperatureHumidityPressure
High88 °F (Mar 26, 1:59 PM)100% (Mar 20, 5:03 AM)30.36 "Hg (Mar 20, 5:03 AM)
Low56 °F (Mar 28, 7:58 AM)24% (Mar 28, 2:58 PM)29.79 "Hg (Mar 27, 3:58 PM)
Average71 °F78%30.06 "Hg
* Reported Mar 16 1:58 PM — Mar 31 1:58 PM, Cocoa Beach, Weather by CustomWeather, © 2015

Note: Actual official high and low records may vary slightly from our data, if they occured in-between our weather recording intervals... More about our weather records

Advertising

Cocoa Beach weather history for previous 24 hours

 ConditionsComfort  
Time TempWeatherWind HumidityBarometerVisibility
1:58 PM
Tue, Mar 31
77 °FSunny.10 mph65%30.12 "Hg10 mi
12:58 PM78 °FSunny.5 mph56%30.15 "Hg10 mi
11:58 AM74 °FSunny.3 mph65%30.16 "Hg10 mi
10:58 AM72 °FSunny.5 mph69%30.18 "Hg10 mi
9:58 AM69 °FSunny.9 mph73%30.18 "Hg10 mi
8:58 AM66 °FSunny.6 mph80%30.17 "Hg10 mi
7:58 AM62 °FClear.6 mph87%30.16 "Hg10 mi
6:58 AM61 °FClear.6 mph86%30.14 "Hg10 mi
5:58 AM62 °FClear.5 mph84%30.14 "Hg10 mi
4:58 AM62 °FClear.7 mph81%30.13 "Hg10 mi
3:58 AM61 °FClear.8 mph78%30.14 "Hg10 mi
2:58 AM62 °FClear.7 mph75%30.15 "Hg10 mi
1:58 AM63 °FClear.8 mph73%30.16 "Hg10 mi
12:58 AM64 °FClear.9 mph76%30.18 "Hg10 mi
11:58 PM
Mon, Mar 30
65 °FClear.9 mph72%30.17 "Hg10 mi
10:58 PM66 °FClear.8 mph70%30.18 "Hg7 mi
9:58 PM66 °FClear.8 mph69%30.18 "Hg10 mi
8:58 PM67 °FClear.8 mph66%30.18 "Hg10 mi
7:58 PM69 °FSunny.6 mph62%30.17 "Hg10 mi
6:58 PM70 °FSunny.9 mph54%30.15 "Hg10 mi
5:58 PM71 °FSunny.9 mph50%30.17 "Hg10 mi
4:58 PM72 °FSunny.9 mph48%30.19 "Hg10 mi
3:58 PM72 °FSunny.7 mph45%30.21 "Hg10 mi
Weather by CustomWeather, © 2015

See weather overviewHow to use our weather pages